TimeMST,TemperatureF,Dew PointF,Humidity,Sea Level PressureIn,VisibilityMPH,Wind Direction,Wind SpeedMPH,Gust SpeedMPH,PrecipitationIn,Events,Conditions,WindDirDegrees,DateUTC
12:53 AM,19.9,9.0,62,30.23,10.0,South,10.4,-,N/A,,Clear,180,2013-01-06 07:53:00
1:53 AM,21.9,10.9,63,30.20,10.0,South,9.2,-,N/A,,Clear,190,2013-01-06 08:53:00
2:53 AM,23.0,12.0,63,30.20,10.0,South,10.4,-,N/A,,Clear,180,2013-01-06 09:53:00
3:53 AM,23.0,12.9,65,30.18,10.0,SSE,6.9,-,N/A,,Scattered Clouds,160,2013-01-06 10:53:00
4:53 AM,24.1,12.9,62,30.18,10.0,South,10.4,-,N/A,,Overcast,180,2013-01-06 11:53:00
5:53 AM,26.1,14.0,60,30.15,10.0,South,12.7,-,N/A,,Overcast,190,2013-01-06 12:53:00
6:53 AM,26.1,15.1,63,30.15,10.0,SSW,11.5,-,N/A,,Overcast,200,2013-01-06 13:53:00
7:53 AM,26.1,16.0,66,30.13,10.0,South,4.6,-,N/A,,Overcast,180,2013-01-06 14:53:00
8:53 AM,28.9,16.0,58,30.14,10.0,South,6.9,-,N/A,,Overcast,190,2013-01-06 15:53:00
9:53 AM,30.9,18.0,59,30.14,10.0,SW,5.8,-,N/A,,Overcast,220,2013-01-06 16:53:00
10:53 AM,32.0,19.0,59,30.14,10.0,South,6.9,-,N/A,,Overcast,170,2013-01-06 17:53:00
11:53 AM,32.0,19.9,61,30.10,10.0,SSE,6.9,-,N/A,,Overcast,160,2013-01-06 18:53:00
12:53 PM,34.0,19.0,54,30.06,10.0,SW,16.1,-,N/A,,Overcast,220,2013-01-06 19:53:00
1:53 PM,36.0,23.0,59,30.01,10.0,South,8.1,-,N/A,,Overcast,170,2013-01-06 20:53:00
2:53 PM,36.0,19.9,52,30.00,10.0,SW,15.0,-,N/A,,Clear,220,2013-01-06 21:53:00
3:53 PM,37.9,21.9,53,29.99,10.0,SW,15.0,-,N/A,,Mostly Cloudy,230,2013-01-06 22:53:00
4:53 PM,35.1,21.0,57,30.01,10.0,SW,16.1,-,N/A,,Overcast,220,2013-01-06 23:53:00
5:53 PM,28.9,19.0,67,30.05,10.0,SW,13.8,-,N/A,,Mostly Cloudy,220,2013-01-07 00:53:00
6:53 PM,28.9,18.0,64,30.06,10.0,South,12.7,-,N/A,,Clear,180,2013-01-07 01:53:00
7:53 PM,28.9,19.0,67,30.06,10.0,SSW,13.8,-,N/A,,Mostly Cloudy,200,2013-01-07 02:53:00
8:53 PM,28.0,17.1,63,30.05,10.0,South,13.8,-,N/A,,Clear,180,2013-01-07 03:53:00
9:53 PM,25.0,16.0,69,30.06,10.0,South,10.4,-,N/A,,Clear,180,2013-01-07 04:53:00
10:53 PM,25.0,15.1,66,30.08,10.0,South,12.7,-,N/A,,Clear,170,2013-01-07 05:53:00
11:53 PM,23.0,15.1,72,30.10,10.0,SSE,12.7,-,N/A,,Clear,160,2013-01-07 06:53:00